Location: *
(49.2333°S, 177.3500°W)
Time: 15:08:00
(UTC+00:00)

Daily predictions for brighter satellites

Satellite Brightness Start Highest point End
(mag) Time Altitude Azimuth Time Altitude Azimuth Time Altitude Azimuth
CZ-4C R/B 4.3 14:05:25 29° ESE 14:05:25 29° ESE 14:08:51 10° SE
CZ-3B DEB 3.7 14:27:27 55° SSE 14:27:27 55° SSE 14:37:46 10° ESE
Lacrosse 5 4.1 14:54:46 22° E 14:54:46 22° E 14:56:44 10° E
Cosmos 2369 Rocket 3.7 14:55:38 33° ESE 14:55:38 33° ESE 14:59:37 10° SE
USA 234 3.9 14:58:51 10° ESE 15:04:19 49° SSE 15:04:19 49° SSE
SL-16 R/B 3.0 15:03:57 10° SSE 15:09:14 57° SE 15:09:14 57° SE
Cosmos 909 Rocket 4.5 15:11:59 60° E 15:11:59 60° E 15:17:20 10° SE
Cosmos 1943 Rocket 3.6 15:18:50 30° NE 15:19:45 31° ENE 15:24:37 10° SE
ATLAS 5 CENTAUR R/B 3.8 15:32:36 25° S 15:32:36 25° S 15:36:27 10° SE
Cosmos 2278 Rocket 4.3 15:42:12 15° SSW 15:42:12 15° SSW 15:44:09 10° S
MOZ.5/SAFIR/RUBIN 5/SL-8 4.4 15:45:42 10° SSE 15:49:23 51° SE 15:49:23 51° SE
CZ-4C R/B 2.8 15:50:37 61° SW 15:50:53 61° SW 15:57:33 10° SE
Cosmos 1607 4.3 15:50:03 47° N 15:51:40 62° ENE 15:57:56 10° SE
BREEZE-M DEB (TANK) 4.1 15:50:52 48° W 15:54:17 89° N 15:58:52 10° E
ATLAS 3B R/B 3.0 16:02:23 31° N 16:05:33 60° ENE 16:12:19 10° SE
Cosmos 1833 4.1 16:05:57 74° NW 16:05:57 74° NW 16:11:30 10° NNE
Cosmos 1821 Rocket 4.2 16:09:24 51° SW 16:09:24 51° SW 16:15:09 10° S
Cosmos 2263 4.1 16:15:09 60° NW 16:16:12 79° WSW 16:21:58 10° SSE
Intercosmos 25 3.8 16:16:30 52° NE 16:17:05 60° E 16:21:45 10° SSE
USA 238 DEB 4.4 16:13:32 13° NNW 16:19:45 54° ENE 16:26:42 10° SE
USA 238 4.4 16:13:34 13° NNW 16:19:51 53° ENE 16:26:48 10° SE
Cosmos 407 Rocket 4.2 16:14:39 10° SSW 16:19:57 54° ESE 16:25:13 10° NE
SL-8 R/B 3.5 16:20:53 76° NW 16:21:06 79° N 16:25:57 10° ENE
CZ-4 R/B 3.3 16:20:02 10° NE 16:23:50 32° ESE 16:27:41 10° S
Cosmos 389 Rocket 2.8 16:26:41 64° ESE 16:26:41 64° ESE 16:29:59 10° SSE
ERBS 4.3 16:28:30 23° S 16:28:30 23° S 16:31:18 10° ESE
Cosmos 2058 4.1 16:24:39 10° S 16:28:49 44° ESE 16:32:55 10° NNE
Cosmos 1605 Rocket 3.9 16:26:09 31° NNW 16:29:05 64° WSW 16:35:18 10° S
Cosmos 2297 Rocket 4.0 16:25:50 10° SSW 16:30:45 28° SE 16:35:37 10° ENE
CZ-3B DEB 3.9 16:26:22 29° WSW 16:31:39 74° SSE 16:46:58 10° ENE
SMAP 4.4 16:28:11 10° NE 16:32:35 40° ESE 16:37:01 10° S
Cosmos 1953 4.3 16:36:43 18° SSW 16:36:43 18° SSW 16:38:02 10° S
Cosmos 1934 Rocket 4.3 16:33:32 41° W 16:34:22 43° WSW 16:40:27 10° S
Lacrosse 5 1.8 16:34:01 53° W 16:35:00 66° NW 16:40:06 10° NE
Cosmos 2219 3.2 16:32:14 10° SSW 16:38:04 85° ESE 16:43:52 10° NNE
Cosmos 2369 Rocket 2.6 16:37:28 41° WSW 16:38:19 44° SW 16:43:52 10° SSE
Cosmos 1470 3.3 16:42:09 44° SW 16:42:09 44° SW 16:45:22 10° S
NOSS 3-3 (A) 4.1 16:39:26 16° SW 16:45:01 81° SE 16:51:18 10° NE
NOSS 3-3 (C) 4.1 16:39:30 16° SW 16:45:07 80° SE 16:51:24 10° NE
Cosmos 1842 Rocket 3.8 16:41:26 10° N 16:45:57 75° E 16:50:32 10° SSE
Cosmos 2098 Rocket 3.5 16:46:09 39° WNW 16:47:31 52° WSW 16:53:06 10° S
USA 234 3.9 16:41:21 10° ESE 16:47:35 47° S 16:51:40 22° SW
EO 1 Del DPAF 3.9 16:47:54 10° SSE 16:51:49 58° ENE 16:55:40 10° N
SL-16 R/B 3.4 16:48:12 10° S 16:53:28 28° WSW 16:54:19 27° WSW
BREEZE-M DEB (TANK) 3.9 16:51:17 33° W 16:53:38 62° NNW 17:10:27 10° NE
CZ-2C R/B 2.2 16:50:15 10° NNE 16:54:53 89° ESE 16:59:38 10° SSW
Cosmos-2242 3.3 16:54:42 41° W 16:55:12 42° WSW 16:59:24 10° S
Cosmos 2100 Rocket 3.9 16:52:24 10° N 16:58:36 84° W 17:04:58 10° S
Cosmos 2227 Rocket 3.1 16:56:54 10° SSW 17:02:30 51° SE 17:08:02 10° NE
BREEZE-M DEB (TANK) 3.7 16:57:25 23° W 17:03:11 89° N 17:06:37 10° E
Cosmos 1943 Rocket 2.4 17:00:25 26° WNW 17:03:18 49° SW 17:08:43 10° SSE
Cosmos 1624 Rocket 4.1 17:00:27 10° NNW 17:05:49 87° ENE 17:11:16 10° SSE
Cosmos 921 Rocket 3.0 17:01:23 10° NNW 17:05:54 87° WSW 17:10:22 10° SSE
CSL-04 Rocket 3.7 17:02:22 10° N 17:07:36 54° W 17:12:52 10° SSW
Cosmos 2173 Rocket 3.9 17:02:34 10° NNW 17:08:43 77° W 17:14:55 10° S
Cosmos 1328 4.3 17:06:16 10° SSW 17:10:05 36° W 17:13:49 10° NNW
Meteor 2-17 Rocket 4.5 17:05:04 10° N 17:11:14 90° E 17:17:30 10° S
Cosmos 1356 Rocket 4.3 17:11:41 28° W 17:11:41 28° W 17:15:12 10° NNW
Ariane Rocket 3.3 17:08:26 10° N 17:13:21 44° W 17:18:20 10° SSW
Meteor 1-16 Rocket 4.1 17:08:06 10° NNW 17:13:30 70° WSW 17:19:10 10° S
Cosmos 2221 3.1 17:10:08 10° N 17:14:23 61° E 17:18:44 10° SSE
IDEFIX/ARIANE 42P 2.6 17:09:40 10° N 17:14:55 59° W 17:20:13 10° SSW
COSMOS 2441 4.4 17:11:03 10° NNE 17:15:53 86° ESE 17:20:49 10° SSW
Cosmos 1140 Rocket 3.8 17:12:28 10° SSW 17:17:43 71° ESE 17:22:56 10° NNE
Cosmos 2061 Rocket 4.0 17:11:48 10° NNW 17:18:03 72° W 17:24:27 10° S
ATLAS 5 CENTAUR R/B 4.0 17:14:09 10° SW 17:18:17 20° S 17:22:14 10° SE
Cosmos 2056 Rocket 3.4 17:13:38 10° NNW 17:18:48 81° WSW 17:24:01 10° SSE
Cosmos 2084 Rocket 3.9 17:20:29 17° SW 17:24:15 56° NW 17:28:58 10° NNE
CSL-04 DEB 4.5 17:20:41 10° NNE 17:25:01 88° W 17:29:17 10° SSW
Meteor 1-11 4.5 17:20:18 10° SSW 17:25:50 47° W 17:31:16 10° NNW
Cosmos 1356 4.3 17:22:59 10° S 17:26:33 54° ESE 17:30:02 10° NNE
Cosmos 1500 Rocket 4.2 17:22:45 10° SSW 17:26:47 32° W 17:30:44 10° NNW
YAOGAN 1 2.5 17:23:28 10° NNE 17:27:52 84° WNW 17:32:19 10° SSW
SJ-12 4.3 17:27:58 10° N 17:31:52 41° W 17:35:51 10° SSW
Cosmos 2151 3.6 17:30:19 10° SSW 17:34:19 34° W 17:38:16 10° NNW
NOSS 3-2 (A) 4.2 17:26:31 10° NNW 17:34:34 76° NE 17:41:56 10° SE
Cosmos 1461 3.4 17:30:33 10° NNW 17:35:13 72° NE 17:39:58 10° SE
Cosmos 1805 Rocket 3.5 17:30:49 10° SSW 17:35:16 80° W 17:39:40 10° N
Cosmos 676 Rocket 4.1 17:32:42 10° SSW 17:37:52 55° WNW 17:43:01 10° N
Cosmos 1626 2.4 17:35:19 10° SSW 17:39:02 47° W 17:42:40 10° NNW
CZ-4C R/B 3.8 17:35:50 14° WSW 17:40:43 28° SSW 17:46:07 10° SE
Sich 1 3.2 17:36:20 10° S 17:40:45 79° E 17:45:07 10° NNE
CZ-2C R/B 3.9 17:36:52 10° S 17:41:26 52° WSW 17:45:51 10° NW
GP-B 3.4 17:37:19 10° N 17:41:48 75° E 17:46:21 10° S
Cosmos 1954 Rocket 4.1 17:39:08 10° SSW 17:44:20 59° WNW 17:49:33 10° N
Cosmos 2016 Rocket 4.1 17:40:08 10° NNW 17:46:27 58° WSW 17:52:50 10° S
Lacrosse 4 Rocket 4.0 17:44:29 10° S 17:47:03 15° SSE 17:49:33 10° ESE
Tsikada Rocket 4.0 17:40:52 10° SSW 17:47:06 66° W 17:53:13 10° N
Cosmos 1656 Rocket 4.0 17:43:31 10° NW 17:48:54 47° SW 17:54:24 10° SSE
ALOS 4.1 17:45:47 10° NE 17:50:01 34° ESE 17:54:17 10° S
Cosmos 44 3.4 17:46:21 10° NW 17:51:10 84° NE 17:56:20 10° SE
Cosmos 1703 4.0 17:49:48 10° SSW 17:53:28 33° W 17:57:05 10° NNW
Cosmos 1452 Rocket 3.6 17:48:47 10° NNW 17:54:07 88° ENE 17:59:31 10° SSE
Cosmos 1484 Rocket 2.9 17:50:19 10° N 17:54:12 53° W 17:58:03 10° SSW
CORIOLIS 4.4 17:49:14 10° N 17:54:30 49° W 17:59:53 10° SSW
ATLAS 3B R/B 3.1 17:50:12 10° WNW 17:56:33 44° SSW 18:03:15 10° SE
Cosmos 1802 Rocket 4.4 17:51:19 10° NW 17:57:15 42° WSW 18:03:11 10° S
Cosmos 2228 Rocket 4.4 17:53:29 10° NNE 17:57:48 47° E 18:02:13 10° SSE
Cosmos 2346 Rocket 4.5 17:52:11 10° S 17:58:20 82° W 18:04:28 10° N
CZ-4 R/B 2.3 17:55:08 10° NNW 17:58:52 30° W 18:02:41 10° SSW
METEOR-M 4.5 17:55:38 10° NNE 18:01:00 73° ESE 18:06:26 10° S
SL-8 R/B 4.5 17:58:52 10° W 18:03:24 40° NNW 18:07:55 10° NE
USA 116 4.3 18:00:23 10° S 18:04:37 50° WSW 18:09:20 10° NW
Cosmos 2058 4.3 18:02:16 10° SW 18:05:27 20° W 18:08:37 10° NW
ERBS 3.3 18:02:19 10° SW 18:05:46 42° SSE 18:09:09 10° E
COSMOS 2455 2.9 18:02:06 10° NW 18:08:07 71° SW 18:14:12 10° SSE
SMAP 4.0 18:06:00 10° NNW 18:10:02 28° W 18:14:08 10° SW
Cosmos 2278 4.3 18:05:05 10° NNW 18:10:42 64° ENE 18:16:23 10° SSE
USA 238 DEB 4.1 18:03:53 10° WNW 18:10:52 51° SW 18:17:51 10° SE
USA 238 4.1 18:03:59 10° WNW 18:10:58 51° SW 18:17:57 10° SE
Cosmos 972 Rocket 4.2 18:06:34 10° N 18:11:32 74° ENE 18:16:31 10° SSE
Cosmos 1420 Rocket 4.2 18:07:14 10° NNW 18:12:30 84° ENE 18:17:47 10° SSE
Cosmos 2297 Rocket 2.3 18:09:36 10° SSW 18:15:18 66° WNW 18:20:55 10° NNE
Cosmos 1725 Rocket 4.3 18:10:13 10° NNW 18:16:23 50° WSW 18:22:37 10° S
Cosmos 2369 4.2 18:11:53 10° NNW 18:17:34 70° ENE 18:23:17 10° SSE
